"Pseudo-MPEC" for SWC0220

Created 2023 Sep 23 17:22:29 UT using Find_Orb

Click here for an explanation of pseudo-MPECs

 
 Astrometry: 
     SWC0220*KB2023 09 08GA-c+%^o.JHAstrometry4b7redacted;.\W\7_$70B%C_/BWc-tY05
     SWC0220 KB2023 09 08Hf2=t6e/xV=[3SL+8PBIclickLGl20hfA+hereMoS9'forJ45wpEY05
     SWC0220 KB2023 09 08nQXG$=`T_c'`explanation/mKxYl],b7ECaY;QV2PJ=cLu2*@u1Y05

Station data:
(Y05) SONEAR Wykrota-CEAMIG, Serra da Piedade  (S19.824251 W43.690000)
   Brazil.  Observer C. Jacques. 0.45-m f/2.9 reflector + CMO.

Orbital elements:  SWC0220
   Perihelion 2023 Sep 30.38144 +/- 50.7 TT =  9:09:16 (JD 2460217.88144)
Epoch 2023 Sep  8.0 TT = JDT 2460195.5   Earth MOID: 0.3819   Ma: 0.0045
M 353.42358294 +/- 21               (J2000 ecliptic)             AutoNEOCP
n   0.29383350 +/- 0.269            Peri.  200.86261 +/- 60
a   2.24079349 +/- 1.37             Node   155.96275 +/- 20
e   0.3825396 +/- 0.252             Incl.    8.10497 +/- 6
P   3.35                   H 21.65  G  0.15   U 11.9  SR
q 1.38360117 +/- 0.443    Q 3.09798582 +/- 65.9
From 3 observations 2023 Sept. 8 (40.6 min); mean residual 0".15
Residuals in arcseconds: 
230908 Y05  .14+  .05+    230908 Y05  .29-  .09-    230908 Y05  .15+  .05+    

Ephemerides (geocentric):
Date (UTC) HH   RA             Dec           delta  r     elong  mag " sig PA
---- --------  ------------   ------------  ------ ------ -----  --- --------
2023 09 23 17  22 26 35.310   -17 43 51.93  .41928 1.3849 150.9 21.5  37d  94
2023 09 23 18  22 26 37.524   -17 44 24.00  .41938 1.3849 150.9 21.5  37d  94
2023 09 23 19  22 26 39.743   -17 44 56.02  .41947 1.3849 150.8 21.5  37d  94
2023 09 23 20  22 26 41.964   -17 45 27.98  .41957 1.3849 150.8 21.5  37d  94
2023 09 23 21  22 26 44.190   -17 45 59.87  .41967 1.3849 150.7 21.5  37d  94
2023 09 23 22  22 26 46.419   -17 46 31.71  .41977 1.3848 150.7 21.5  37d  94
2023 09 23 23  22 26 48.652   -17 47 03.48  .41987 1.3848 150.7 21.5  37d  94
2023 09 24 00  22 26 50.888   -17 47 35.19  .41997 1.3848 150.6 21.5  37d  94
2023 09 24 01  22 26 53.128   -17 48 06.85  .42007 1.3848 150.6 21.5  37d  94
2023 09 24 02  22 26 55.371   -17 48 38.44  .42017 1.3848 150.6 21.5  37d  94
2023 09 24 03  22 26 57.618   -17 49 09.97  .42027 1.3848 150.5 21.5  37d  94
2023 09 24 04  22 26 59.869   -17 49 41.44  .42037 1.3847 150.5 21.5  37d  94
2023 09 24 05  22 27 02.123   -17 50 12.84  .42047 1.3847 150.4 21.5  37d  94
2023 09 24 06  22 27 04.380   -17 50 44.19  .42057 1.3847 150.4 21.5  37d  94
2023 09 24 07  22 27 06.642   -17 51 15.48  .42067 1.3847 150.4 21.5  37d  94
2023 09 24 08  22 27 08.907   -17 51 46.70  .42077 1.3847 150.3 21.5  37d  94
2023 09 24 09  22 27 11.175   -17 52 17.87  .42087 1.3847 150.3 21.5  37d  94
2023 09 24 10  22 27 13.447   -17 52 48.97  .42097 1.3847 150.3 21.5  37d  98
2023 09 24 11  22 27 15.723   -17 53 20.01  .42107 1.3846 150.2 21.5  37d  98
2023 09 24 12  22 27 18.002   -17 53 50.99  .42117 1.3846 150.2 21.5  37d  98
2023 09 24 13  22 27 20.285   -17 54 21.91  .42128 1.3846 150.2 21.5  37d  98
2023 09 24 14  22 27 22.572   -17 54 52.77  .42138 1.3846 150.1 21.5  37d  98
2023 09 24 15  22 27 24.862   -17 55 23.57  .42148 1.3846 150.1 21.5  37d  98
2023 09 24 16  22 27 27.156   -17 55 54.30  .42158 1.3846 150.0 21.5  37d  98
2023 09 24 17  22 27 29.453   -17 56 24.97  .42169 1.3846 150.0 21.5  37d  98
2023 09 24 18  22 27 31.754   -17 56 55.59  .42179 1.3845 150.0 21.5  37d  98
2023 09 24 19  22 27 34.058   -17 57 26.14  .42189 1.3845 149.9 21.5  37d  98
2023 09 24 20  22 27 36.366   -17 57 56.62  .42200 1.3845 149.9 21.5  37d  98
2023 09 24 21  22 27 38.678   -17 58 27.05  .42210 1.3845 149.9 21.5  37d  98
2023 09 24 22  22 27 40.993   -17 58 57.42  .42220 1.3845 149.8 21.5  37d  98
2023 09 24 23  22 27 43.311   -17 59 27.72  .42231 1.3845 149.8 21.5  37d  98
2023 09 25 00  22 27 45.634   -17 59 57.96  .42241 1.3845 149.7 21.5  37d  98
2023 09 25 01  22 27 47.960   -18 00 28.14  .42252 1.3844 149.7 21.5  37d  98
2023 09 25 02  22 27 50.289   -18 00 58.26  .42262 1.3844 149.7 21.5  37d  98
2023 09 25 03  22 27 52.622   -18 01 28.32  .42273 1.3844 149.6 21.5  37d  98
2023 09 25 04  22 27 54.959   -18 01 58.31  .42283 1.3844 149.6 21.5  37d  98
2023 09 25 05  22 27 57.299   -18 02 28.24  .42294 1.3844 149.6 21.5  37d  98
2023 09 25 06  22 27 59.643   -18 02 58.11  .42304 1.3844 149.5 21.5  37d  98
2023 09 25 07  22 28 01.990   -18 03 27.92  .42315 1.3844 149.5 21.5  37d  98
2023 09 25 08  22 28 04.341   -18 03 57.67  .42325 1.3844 149.5 21.5  37d  98
2023 09 25 09  22 28 06.696   -18 04 27.35  .42336 1.3843 149.4 21.5  37d  98
2023 09 25 10  22 28 09.054   -18 04 56.97  .42347 1.3843 149.4 21.5  37d  98
2023 09 25 11  22 28 11.416   -18 05 26.53  .42357 1.3843 149.3 21.5  37d  98
2023 09 25 12  22 28 13.781   -18 05 56.03  .42368 1.3843 149.3 21.5  37d  98
2023 09 25 13  22 28 16.150   -18 06 25.47  .42379 1.3843 149.3 21.5  37d  98
2023 09 25 14  22 28 18.522   -18 06 54.84  .42389 1.3843 149.2 21.6  37d  98
2023 09 25 15  22 28 20.898   -18 07 24.15  .42400 1.3843 149.2 21.6  37d  98
2023 09 25 16  22 28 23.278   -18 07 53.40  .42411 1.3843 149.2 21.6  37d  98